Observations for Trim Market St
| Time | AQI | Temp °C | Hum % | Pres Pa | CO μg/m³ | H₂S μg/m³ | NO μg/m³ | NO₂ μg/m³ | O₃ μg/m³ | SO₂ μg/m³ | PM1 μg/m³ | PM2.5 μg/m³ | PM10 μg/m³ |
|---|---|---|---|---|---|---|---|---|---|---|---|---|---|
| Friday 10 July 2026 | |||||||||||||
| 16:47 | 1 | 40.3 | 28 | 67,092 | 0 | 0 | 0 | 3.94 | 15.79 | 6.2 | 1.43 | 3.95 | 4.34 |
| 16:46 | 1 | 40.3 | 28 | 67,080 | 0 | 3.03 | 0 | 2.84 | 20.15 | 6.56 | 2.85 | 6.13 | 6.74 |
| 16:45 | 1 | 40.4 | 28 | 67,088 | 0 | 7.99 | 0 | 9.12 | 19.5 | 5.82 | 0.71 | 4.5 | 4.95 |
| 16:44 | 1 | 40.4 | 28 | 67,100 | 0 | 1.93 | 0 | 6.04 | 31.48 | 6.03 | 2.14 | 5.6 | 6.16 |
| 16:43 | 1 | 40.4 | 28 | 67,090 | 0 | 0.16 | 0 | 2.04 | 22.57 | 6.33 | 2.14 | 5.6 | 6.16 |
| 16:42 | 1 | 40.4 | 28 | 67,106 | 0 | 0 | 0 | 0.75 | 10.61 | 5.85 | 2.85 | 6.15 | 6.64 |
| 16:38 | 1 | 40.5 | 28 | 67,112 | 0 | 0 | 0 | 4.89 | 19.88 | 5.59 | 2.14 | 6.13 | 6.75 |
| 16:37 | 1 | 40.5 | 28 | 67,102 | 0 | 1.61 | 0 | 16.2 | 1.51 | 3.75 | 2.14 | 5.05 | 5.55 |
| 16:35 | 1 | 40.6 | 28 | 67,090 | 0 | 1.46 | 0 | 3.99 | 25.63 | 6.34 | 2.14 | 5.6 | 6.16 |
| 16:27 | 1 | 40.5 | 28 | 67,068 | 0 | 1.67 | 0 | 5.39 | 24.46 | 6.06 | 2.14 | 5.59 | 6.15 |
| 16:24 | 1 | 40.4 | 28 | 67,076 | 0 | 7.12 | 0 | 7.54 | 26.69 | 5.96 | 1.43 | 4.51 | 4.96 |
| 16:23 | 1 | 40.4 | 28 | 67,084 | 0 | 0 | 0 | 0 | 21.46 | 6.91 | 1.43 | 4.51 | 4.96 |
| 16:22 | 1 | 40.5 | 28 | 67,063 | 0 | 0 | 0 | 0 | 31.44 | 6.96 | 1.43 | 5.06 | 5.56 |
| 16:21 | 1 | 40.5 | 28 | 67,092 | 0 | 2.73 | 0 | 5.63 | 19.95 | 6.01 | 1.43 | 4.51 | 4.96 |
| 16:18 | 1 | 40.5 | 28 | 67,102 | 0 | 0 | 0 | 12 | 5.61 | 4.66 | 0.71 | 4.5 | 4.95 |
| 16:17 | 1 | 40.6 | 28 | 67,092 | 0 | 6.44 | 0 | 9.79 | 11.8 | 5.79 | 2.85 | 5.6 | 6.16 |
| 16:16 | 1 | 40.6 | 28 | 67,072 | 0 | 3.12 | 0 | 4.49 | 21.11 | 6.35 | 2.14 | 5.05 | 5.56 |
| 16:15 | 1 | 40.6 | 28 | 67,104 | 0 | 2.82 | 0 | 3.79 | 26.11 | 6.8 | 1.43 | 4.51 | 4.96 |
| 16:14 | 1 | 40.7 | 27 | 67,120 | 0 | 0 | 0 | 1.79 | 25.2 | 6.71 | 2.85 | 5.61 | 6.17 |
| 16:12 | 1 | 40.7 | 28 | 67,114 | 0 | 2.97 | 0 | 5.27 | 32.94 | 6.85 | 2.14 | 5.06 | 5.56 |